Home   Weather   Hart   Past weeks
Flag for USA

Past Weather in Hart, Michigan, USA — Yesterday and Last 2 Weeks

Now
69 °F

Overcast.


Feels Like: 69 °F
Forecast: 80 / 63 °F
Wind: 9 mph from Northwest

Location: Mason County Airport

Current Time: Jul 20, 2019 at 10:32:20 pm

Latest Report: Jul 20, 2019 at 9:56 pm


Visibility: 10 mi

Pressure: 29.88 "Hg

Humidity: 95%

Dew Point: 67 °F

Location of HartLocation

Past Weather in Hart — Graph

°F

Hart Temperature Yesterday

Maximum temperature yesterday: 85 °F (at 2:55 pm)
Minimum temperature yesterday: 74 °F (at 8:17 am)
Average temperature yesterday: 80 °F

High & Low Weather Summary for the Past Weeks

 TemperatureHumidityPressure
High87 °F (Jul 10, 3:56 pm)98% (Jul 8, 4:15 am)30.19 "Hg (Jul 8, 4:15 am)
Low46 °F (Jul 12, 4:35 am)26% (Jul 14, 2:55 pm)29.70 "Hg (Jul 20, 6:38 pm)
Average71 °F75%29.95 "Hg
* Reported Jul 5 9:15 pm — Jul 20 9:15 pm, Hart. Weather by CustomWeather, © 2019

Note: Actual official high and low records may vary slightly from our data, if they occured in-between our weather recording intervals... More about our weather records

Advertising

Hart Weather History for the Previous 24 Hours

Scroll right to see more
 ConditionsComfort  
Time TempWeatherWind HumidityBarometerVisibility
9:15 pm
Sat, Jul 20
69 °FOvercast.No wind94%29.86 "Hg10 mi
8:56 pm69 °FOvercast.3 mph94%29.85 "Hg10 mi
8:36 pm69 °FMostly cloudy.6 mph94%29.84 "Hg10 mi
7:59 pm70 °FPassing clouds.10 mph96%29.82 "Hg10 mi
7:35 pm71 °FClear.No wind93%29.79 "Hg10 mi
7:16 pm70 °FPassing clouds.3 mph95%29.76 "Hg10 mi
6:56 pm69 °FPassing clouds.8 mph96%29.74 "Hg10 mi
6:38 pm69 °FPartly cloudy.9 mph97%29.70 "Hg10 mi
6:15 pm69 °FLight rain. Mostly cloudy.10 mph96%29.78 "Hg10 mi
5:55 pm69 °FLight rain. Mostly cloudy.6 mph96%29.90 "Hg10 mi
5:36 pm70 °FLight rain. Partly cloudy.8 mph96%29.90 "Hg10 mi
5:17 pm70 °FHeavy rain. Partly cloudy.No wind94%29.87 "Hg2 mi
4:59 pm69 °FLight rain. Broken clouds.9 mph96%29.79 "Hg10 mi
4:35 pm69 °FLight rain. Broken clouds.8 mph97%29.81 "Hg10 mi
4:15 pm69 °FLight rain. More clouds than sun.9 mph97%29.82 "Hg10 mi
3:56 pm69 °FRain. Overcast.9 mph97%29.86 "Hg7 mi
3:38 pm69 °FRain. Overcast.7 mph97%29.86 "Hg10 mi
3:20 pm69 °FLight rain. More clouds than sun.9 mph97%29.86 "Hg10 mi
3:15 pm68 °FDrizzle. More clouds than sun.8 mph97%29.87 "Hg10 mi
2:55 pm68 °FLight rain. Cloudy.7 mph98%29.87 "Hg10 mi
2:35 pm68 °FHeavy rain. Mostly cloudy.6 mph97%29.87 "Hg1 mi
1:59 pm71 °FOvercast.13 mph85%29.78 "Hg10 mi
1:36 pm72 °FMore clouds than sun.13 mph82%29.81 "Hg10 mi
1:15 pm72 °FDrizzle. Cloudy.24 mph80%29.82 "Hg10 mi
12:56 pm70 °FLight rain. Cloudy.26 mph87%29.86 "Hg10 mi
12:38 pm70 °FLight rain. Mostly cloudy.21 mph93%29.84 "Hg7 mi
12:20 pm72 °FLight rain. Mostly cloudy.7 mph96%29.83 "Hg10 mi
11:55 am72 °FRain. Overcast.8 mph95%29.81 "Hg10 mi
11:35 am72 °FLight rain. Overcast.5 mph96%29.81 "Hg7 mi
11:17 am72 °FRain. Mostly cloudy.No wind92%29.81 "Hg10 mi
10:59 am72 °FRain. More clouds than sun.5 mph94%29.81 "Hg3 mi
10:36 am72 °FLight rain. More clouds than sun.3 mph93%29.82 "Hg10 mi
10:16 am71 °FRain. More clouds than sun.No wind94%29.84 "Hg10 mi
9:38 am70 °FRain. More clouds than sun.10 mph95%29.82 "Hg7 mi
9:20 am71 °FRain. Overcast.7 mph95%29.84 "Hg10 mi
8:56 am71 °FOvercast.5 mph94%29.84 "Hg10 mi
8:35 am71 °FOvercast.3 mph93%29.82 "Hg10 mi
7:59 am70 °FLight rain. Mostly cloudy.9 mph97%29.84 "Hg7 mi
7:35 am71 °FLight rain. Cloudy.No wind91%29.85 "Hg10 mi
7:16 am71 °FCloudy.6 mph91%29.83 "Hg10 mi
6:56 am71 °FLight rain. Cloudy.9 mph92%29.82 "Hg5 mi
6:38 am73 °FPartly sunny.9 mph81%29.83 "Hg10 mi
6:15 am71 °FOvercast.15 mph88%29.85 "Hg10 mi
5:56 am72 °FPartly sunny.7 mph86%29.81 "Hg10 mi
5:36 am71 °FScattered clouds.7 mph87%29.81 "Hg10 mi
5:16 am71 °FScattered clouds.6 mph90%29.82 "Hg10 mi
4:59 am71 °FLight rain. Sunny.5 mph88%29.82 "Hg10 mi
4:35 am71 °FSunny.3 mph88%29.82 "Hg10 mi
4:16 am70 °FLight rain. Scattered clouds.No wind91%29.80 "Hg10 mi
3:38 am70 °FLight rain. Scattered clouds.10 mph93%29.82 "Hg10 mi
3:20 am69 °FLight rain. Scattered clouds.10 mph94%29.84 "Hg10 mi
2:56 am69 °FLight rain. Scattered clouds.8 mph95%29.84 "Hg10 mi
2:36 am69 °FRain. Partly sunny.5 mph96%29.85 "Hg10 mi
2:17 am69 °FRain. Scattered clouds.8 mph96%29.84 "Hg10 mi
1:59 am69 °FRain. Partly sunny.6 mph96%29.87 "Hg10 mi
1:35 am69 °FLight rain. Scattered clouds.6 mph95%29.88 "Hg10 mi
1:16 am69 °FLight rain. Broken clouds.No wind95%29.91 "Hg10 mi
12:56 am69 °FRain. Overcast.No wind94%29.89 "Hg7 mi
12:38 am69 °FHeavy rain. Overcast.3 mph95%29.90 "Hg5 mi
12:20 am71 °FHeavy rain. Overcast.12 mph88%29.91 "Hg2 mi
12:15 am75 °FHeavy rain. Overcast.26 mph81%29.90 "Hg7 mi
11:55 pm
Fri, Jul 19
82 °FPassing clouds.9 mph82%29.82 "Hg10 mi
11:35 pm81 °FPassing clouds.5 mph84%29.81 "Hg10 mi
11:17 pm81 °FPassing clouds.No wind83%29.81 "Hg10 mi
10:59 pm81 °FPassing clouds.No wind83%29.82 "Hg10 mi
10:36 pm81 °FPassing clouds.3 mph83%29.82 "Hg10 mi
10:15 pm80 °FClear.5 mph84%29.79 "Hg10 mi
Weather by CustomWeather, © 2019

See weather overview